Pocatello, ID

7:44 PM MDT on June 27, 2017 (GMT -0600)
Pocatello Regional

Weather History for KPIH - July, 2014

Change the Weather History Date:

Saturday, July 26, 2014

  Actual Average Record
Temperature  
Mean Temperature 71 °F 71 °F  
Max Temperature 90 °F 90 °F 102 °F (1994)
Min Temperature 52 °F 53 °F 42 °F (1999)
Degree Days  
Heating Degree Days 0 0  
Month to date heating degree days 2 17  
Since 1 June heating degree days 112 148  
Since 1 July heating degree days 2 17  
Cooling Degree Days 6 7  
Month to date cooling degree days 217 137  
Year to date cooling degree days 237 188  
Since 1 June cooling degree days 237 183  
Growing Degree Days 21 (Base 50)    
Moisture  
Dew Point 28 °F    
Average Humidity 23    
Maximum Humidity 37    
Minimum Humidity 9    
Precipitation  
Precipitation 0.00 in 0.02 in 0.24 in (1993)
Month to date precipitation 0.32 0.53  
Year to date precipitation 6.46 7.35  
Snow  
Snow 0.00 in - - ()
Month to date snowfall 0.0  
Since 1 June snowfall 0.0  
Since 1 July snowfall 0.0  
Snow Depth 0.00 in    
Sea Level Pressure  
Sea Level Pressure 30.03 in    
Wind  
Wind Speed 6 mph (SW)    
Max Wind Speed 17 mph    
Max Gust Speed 22 mph    
Visibility 10 miles    
Events      
T = Trace of Precipitation, MM = Missing Value Source: NWS Daily Summary

Daily Weather History Graph

Daily Weather History Graph

Search for Another Location

Airport or City:

Trip Planner

Search our weather history database for the weather conditions in past years. The results will help you decide how hot, cold, wet, or windy it might be!

Date:

Astronomy

Jul. 26, 2014 Rise Set
Actual Time 6:15 AM MDT 8:57 PM MDT
Civil Twilight 5:42 AM MDT 9:30 PM MDT
Nautical Twilight 5:01 AM MDT 10:11 PM MDT
Astronomical Twilight 4:13 AM MDT 10:58 PM MDT
Moon 6:13 AM MDT (7/26) 8:32 PM MDT (7/26)
Length of Visible Light 15h 47m
Length of Day
14h 42m
Waning Crescent, 0% of the Moon is Illuminated
Jul 26
Waning Crescent
Jul 26
New
Aug 3
First Quarter
Aug 10
Full
Aug 17
Last Quarter

Hourly Weather History & Observations

Time (MDT) Temp. Dew Point Humidity Pressure Visibility Wind Dir Wind Speed Gust Speed Precip Events Conditions
12:53 AM 68.0 °F 30.0 °F 24% 29.96 in 10.0 mi SSW 13.8 mph - N/A   Clear
1:53 AM 69.1 °F 28.9 °F 22% 29.95 in 10.0 mi SW 15.0 mph - N/A   Clear
2:53 AM 66.0 °F 28.9 °F 25% 29.97 in 10.0 mi SW 15.0 mph - N/A   Clear
3:53 AM 61.0 °F 28.0 °F 29% 29.98 in 10.0 mi Calm Calm - N/A   Clear
4:53 AM 59.0 °F 28.0 °F 31% 30.01 in 10.0 mi SW 9.2 mph - N/A   Clear
5:53 AM 55.0 °F 28.0 °F 35% 30.04 in 10.0 mi Calm Calm - N/A   Clear
6:53 AM 57.0 °F 27.0 °F 32% 30.05 in 10.0 mi SSW 9.2 mph - N/A   Clear
7:53 AM 64.9 °F 28.9 °F 26% 30.06 in 10.0 mi Variable 5.8 mph - N/A   Clear
9:53 AM 70.0 °F 32.0 °F 25% 30.10 in 10.0 mi West 5.8 mph - N/A   Clear
12:53 PM 81.0 °F 28.9 °F 15% 30.08 in 10.0 mi West 3.5 mph - N/A   Clear
1:53 PM 84.9 °F 25.0 °F 11% 30.06 in 10.0 mi Variable 5.8 mph - N/A   Clear
2:53 PM 86.0 °F 28.0 °F 12% 30.04 in 10.0 mi North - - N/A   Clear
3:53 PM 88.0 °F 26.1 °F 11% 30.04 in 10.0 mi South 9.2 mph 19.6 mph N/A   Clear
4:53 PM 88.0 °F 27.0 °F 11% 30.02 in 10.0 mi West 6.9 mph - N/A   Clear
5:53 PM 88.0 °F 26.1 °F 11% 30.02 in 10.0 mi SSE 3.5 mph - N/A   Clear
6:53 PM 88.0 °F 21.0 °F 9% 30.00 in 10.0 mi SSW 8.1 mph - N/A   Clear
7:53 PM 86.0 °F 23.0 °F 10% 29.99 in 10.0 mi SSW 3.5 mph - N/A   Clear
8:53 PM 81.0 °F 34.0 °F 18% 30.00 in 10.0 mi ESE 3.5 mph - N/A   Clear
9:53 PM 71.6 °F 30.2 °F 22% 30.16 in 10.0 mi South 4.6 mph - N/A   Clear
10:53 PM 68.0 °F 28.0 °F 22% 30.04 in 10.0 mi Calm Calm - N/A   Clear
11:53 PM 63.0 °F 28.9 °F 28% 30.05 in 10.0 mi WSW 4.6 mph - N/A   Clear